Regional Weather Roundup
Issued by NWS

Home | Current Version | Previous Version | Text Only | Print | Product List | Glossary Off
Versions: 1 2 3 4 5 6 7 8 9 10 11 12 13 14 15 16 17 18 19 20 21 22 23 24 25 26 27 28 29 30 31 32 33 34 35 36 37 38 39 40 41 42 43 44 45 46 47 48 49 50

000
ASUS45 KTFX 242010
RWRMT
MONTANA REGIONAL WEATHER ROUNDUP
NATIONAL WEATHER SERVICE GREAT FALLS MT
200 PM MDT SUN JUL 24 2016

NOTE: "FAIR" INDICATES FEW OR NO CLOUDS BELOW 12000 FEET WITH NO
SIGNIFICANT WEATHER AND/OR OBSTRUCTIONS TO VISIBILITY.

MTZ001>007-043-242100-
WEST OF THE DIVIDE

CITY           SKY/WX    TMP DP  RH WIND       PRES   REMARKS
KALISPELL      SUNNY     76  49  38 E10G17    30.10F
MISSOULA       SUNNY     79  37  22 W5        30.11F
BUTTE          SUNNY     77  31  18 NE7       30.19F
MULLAN PASS    SUNNY     66  43  43 VRB3      30.25F
ANACONDA         N/A     75  36  23 NW3       30.15F
DEER LODGE       N/A     77  30  18 E3        30.18F
EUREKA           N/A     79  46  31 CALM      30.09F
HAMILTON         N/A     75  39  27 CALM      30.11F
LIBBY            N/A     81  45  28 NW5       30.08F
PLAINS           N/A     83  46  27 N1        30.08F
RONAN            N/A     76  45  33 SW1       30.15F
$$

MTZ008-052>055-242100-
SOUTHWEST MONTANA

CITY           SKY/WX    TMP DP  RH WIND       PRES   REMARKS
BOZEMAN        SUNNY     79  40  24 VRB5      30.14F
DILLON         SUNNY     78  39  24 W7        30.16F
W YELLOWSTONE  SUNNY     73  27  17 SW9       30.27S
ENNIS          SUNNY     79  36  21 VRB6      30.22F
TWIN BRIDGES     N/A     79  39  23 S5        30.13F
$$

MTZ009-010-012-014-046-048-049-054-242100-
EAST SLOPES AND CENTRAL MONTANA

CITY           SKY/WX    TMP DP  RH WIND       PRES   REMARKS
CUT BANK       SUNNY     79  40  24 VRB5      30.06F
GREAT FALLS    SUNNY     82  33  17 W12G32    30.08F
MALMSTROM AFB  SUNNY     79  35  20 W13G18    30.08F
HELENA         SUNNY     83  35  18 NE8       30.09F
CHOTEAU          N/A     81  36  19 N8        30.10F
CONRAD           N/A     80  45  29 E3        30.09F
$$

MTZ011-013-016-021-045-047-050-051-242100-
NORTH CENTRAL MONTANA

CITY           SKY/WX    TMP DP  RH WIND       PRES   REMARKS
HAVRE          SUNNY     83  43  24 MISG      30.01F
LEWISTOWN      SUNNY     79  44  28 N7        30.11F
N BAR RANCH      N/A     81  39  22 E9G18     30.13F
CHINOOK          N/A     82  43  24 SW9       30.02S
$$

MTZ017>020-022>027-061-062-242100-
NORTHEAST MONTANA

CITY           SKY/WX    TMP DP  RH WIND       PRES   REMARKS
GLASGOW        SUNNY     87  48  25 W10       29.99F
JORDAN           N/A     89  44  20 W13G23    30.02F
SIDNEY         MOSUNNY   84  51  31 VRB3      30.03F
WOLF POINT     MOSUNNY   86  50  28 VRB5      30.00F
PLENTYWOOD       N/A     81  54  39 SW12      30.02F
POPLAR           N/A     84  52  32 W5        30.01F
SCOBEY           N/A     97  67  37 SW3       30.02F HX 101
$$

MTZ028>42-056>058-242100-
SOUTHCENTRAL AND SOUTHEAST MONTANA

CITY           SKY/WX    TMP DP  RH WIND       PRES   REMARKS
BAKER          SUNNY     84  46  26 E5        30.09F
BILLINGS       MOSUNNY   85  39  19 CALM      30.08F
LIVINGSTON     SUNNY     85  36  17 W6        30.11F
MILES CITY     SUNNY     89  43  20 E8        30.03F
EKALAKA          N/A     83  42  23 W3        30.08F
FORSYTH          N/A     88  43  20 SE10      30.02F
LAUREL           N/A     85  41  21 S7        30.06F
ROUNDUP          N/A     84  40  21 SE6       29.99F
$$

REGIONAL REPORTS...DAKOTAS

CITY           SKY/WX    TMP DP  RH WIND       PRES   REMARKS
WILLISTON      SUNNY     83  51  33 NW6       30.02F
MINOT          SUNNY     83  54  36 W17G29    29.99S
DICKINSON      SUNNY     81  50  33 NW8       30.07S
CROSBY           N/A     75  57  53 NW10G18   30.04F
WATFORD CITY     N/A    N/A N/A N/A MISG        N/A
BISMARCK       SUNNY     83  55  38 NW13G21   30.03F
GRAND FORKS    MOSUNNY   80  63  55 NW15G23   29.88R
FARGO          MOSUNNY   82  59  45 W18G28    29.91R
BUFFALO SD       N/A     86  45  23 S7        30.04F
RAPID CITY     MOSUNNY   85  48  27 VRB3      30.12F
$$

REGIONAL REPORTS...WYOMING/IDAHO/WASHINGTON

CITY           SKY/WX    TMP DP  RH WIND       PRES   REMARKS
GILLETTE       MOSUNNY   84  44  24 S15G26    30.14F
SHERIDAN       SUNNY     89  39  17 MISG      30.08F
BUFFALO WY     MOSUNNY   84  40  21 SE16G29   30.16F
CODY           SUNNY     81  39  22 E7        30.15F
YELLOWSTONE LA   N/A     73  28  18 VRB7G16   30.36F
IDAHO FALLS    SUNNY     82  33  17 W7        30.16F
SALMON         SUNNY     79  41  25 NW6       30.07F
BOISE          SUNNY     86  38  18 NW6       30.06F
SPOKANE        MOSUNNY   81  42  25 VRB5      30.10F
$$

REGIONAL REPORTS...ALBERTA

CITY           SKY/WX    TMP DP  RH WIND       PRES   REMARKS
EDMONTON       SUNNY     79  54  41 W10G21    29.88F
CALGARY        MOSUNNY   75  46  35 S15       30.00F
LETHBRIDGE     MOSUNNY   79  45  29 SW8G17    30.02F
MEDICINE HAT   MOSUNNY   77  57  50 SW10      29.98F
WATERTON GATE    N/A     75  46  35 SW17G24     N/A
CARDSTON         N/A     79  45  29 SW2         N/A
MILK RIVER       N/A     79  43  27 NW5         N/A
ONEFOUR          N/A     81  39  22 W6          N/A
$$

REGIONAL REPORTS...SASKATCHEWAN

CITY           SKY/WX    TMP DP  RH WIND       PRES   REMARKS
SWIFT CURRENT  MOSUNNY   75  57  53 SE6       30.01F
REGINA         MOSUNNY   75  55  50 NW13      29.99F
SASKATOON      MOSUNNY   77  52  41 NW9G20    29.96S
CYPRESS HILLS    N/A     72  50  46 NW7         N/A
VAL MARIE        N/A     82  46  28 SW6         N/A
ROCKGLEN         N/A     79  50  36 W12         N/A
ASSINIBOIA       N/A     79  54  41 SW13        N/A
$$



USA.gov is the U.S. government's official web portal to all federal, state and local government web resources and services.